Simultaneous Nadir Overpasses (SNOs) Predictions

Prediction of SNOs between GOES-16 and METOP-C Satellite Orbit:

Table of predicted SNOs for the next 14.0 days since TLE Epoch: 2/19/2022
Index Date Time (GOES-16) GOES-16 Lat,Lon METOP-C Lat,Lon Distance(km) Time Diff (sec)
1 02/20/2022 02:27:32 -0.03, -75.20 0.15, -74.37 94.77 80
2 02/21/2022 14:49:03 0.04, -75.23 0.85, -78.93 421.49 80
3 02/22/2022 14:25:44 0.03, -75.23 -0.27, -73.94 147.86 80
4 02/24/2022 02:47:24 -0.03, -75.21 -0.75, -78.54 377.96 80
5 02/25/2022 02:24:05 -0.03, -75.22 0.37, -73.54 191.39 80
6 02/26/2022 14:45:36 0.03, -75.24 0.64, -78.10 324.89 80
7 02/27/2022 14:22:15 0.03, -75.25 -0.42, -73.10 244.93 80
8 03/01/2022 02:43:56 -0.04, -75.24 -0.58, -77.69 279.66 80
9 03/02/2022 02:20:36 -0.04, -75.25 0.55, -72.70 290.71 80
10 03/03/2022 14:39:27 0.04, -75.29 0.48, -77.26 224.08 80
11 03/04/2022 14:18:48 0.04, -75.31 -0.65, -72.27 346.94 80
